Weather at Stockholm-Bromma Airport

Public forecast

Using degrees Celsius for public forecast. Weather courtesy of forecast.io.

Current aviation weather report (METAR) for Stockholm-Bromma Airport

Retrieved 2021/04/11 08:50 UTC (19 minutes ago):

ESSB 110850Z AUTO 15007KT 110V200 9999 FEW160/// 08/M04 Q1019

Aviation forecast (TAF) for Stockholm-Bromma Airport

Forecast is more than 12 hours old.

Retrieved 2017/03/27 06:35 UTC (4 years ago):

TAF ESSB 270530Z 2706/2724 27008KT CAVOK BECMG 2710/2713 29015G25KT